Tracking 18945 objects as of 19-Jan-2018
HD Live streaming from Space Station
objects crossing your sky now

EXPLORER 26 (EPE-D)

Track EXPLORER 26 (EPE-D) now!
10-day predictions
EXPLORER 26 (EPE-D) is classified as:


NORAD ID: 963
Int'l Code: 1964-086A
Perigee: 258.9 km
Apogee: 1,885.3 km
Inclination: 19.7 °
Period: 106.5 minutes
Semi major axis: 7443 km
RCS: 0.6916 m2 (medium)
Launch date: December 21, 1964
Source: United States (US)
Launch site: AIR FORCE EASTERN TEST RANGE (AFETR)
aabbcc
Your satellite tracking list
Your tracking list is empty




NASA's NSSDC Master Catalog

Two Line Element Set (TLE):
1   963U 64086A   18018.24662423 +.00042572 -11997-4 +44305-3 0  9990
2   963 019.7272 334.0146 1092578 271.1258 076.4405 13.51981390071102
Source of the keplerian elements: AFSPC